Location: Barrialito
(10.3588°N, 66.9747°W)
Time: 15:23:50
(UTC+00:00)

Cosmos 1862 Rocket - Pass Details

Date: 06 July 2022
Orbit: 603 x 633 km, 82.5° (Epoch: 13 August)

Event Time Altitude Azimuth Distance (km) Brightness Sun altitude
Rises 09:24:45 0° 336° (NNW) 2,845 7.0 -11.3°
Reaches altitude 10° 09:27:15 10° 322° (NW) 1,945 6.0 -10.7°
Maximum altitude 09:30:45 24° 268° (W) 1,248 4.6 -10.0°
Drops below altitude 10° 09:34:16 10° 213° (SSW) 1,956 5.6 -9.2°
Enters shadow 09:35:56 - 203° (SSW) 2,542 6.3 -8.8°
